Regional Weather Roundup
Issued by NWS Newport/Morehead, NC

Current Version | Previous Version | Graphics & Text | Print | Product List | Glossary Off
Versions: 1 2 3 4 5 6 7 8 9 10 11 12 13 14 15 16 17 18 19 20 21 22 23 24 25 26 27 28 29 30 31 32 33 34 35 36 37 38 39 40 41 42 43 44 45 46 47 48 49 50

000
ASUS42 KMHX 280522
RWRMHX
WEATHER ROUNDUP FOR EASTERN NORTH CAROLINA
NATIONAL WEATHER SERVICE NEWPORT/MOREHEAD CITY NC
100 AM EDT MON JUL 28 2014

NOTE: "FAIR" INDICATES FEW OR NO CLOUDS BELOW 12,000 FEET
WITH NO SIGNIFICANT WEATHER AND/OR OBSTRUCTIONS TO VISIBILITY

NCZ015>017-031-032-045>047-102-103-280600-
NORTH COAST

CITY           SKY/WX    TMP DP  RH WIND       PRES   REMARKS
EDENTON        MOCLDY    79  75  87 SW8       29.76F
ELIZABETH CITY MOCLDY    80  74  81 S9        29.76F
KITTY HAWK     PTCLDY    80  75  85 SW7       29.76F
MANTEO         NOT AVBL

$$

NCZ045>047-081-094-103-104-280600-
CENTRAL COAST

CITY           SKY/WX    TMP DP  RH WIND       PRES   REMARKS
FRISCO         MOCLDY    81  79  94 SW14G23   29.82S
SWANQUARTER      N/A     82 N/A N/A S12G17    29.77S

$$

NCZ095-097-098-100-101-280600-
SOUTHERN COAST

CITY           SKY/WX    TMP DP  RH WIND       PRES   REMARKS
BEAUFORT       MOCLDY    83  79  88 SW18G24     N/A
CEDAR ISLAND     N/A     82 N/A N/A S8G18     29.85S
JACKSONVILLE   CLOUDY    82  76  81 SW9       29.80R
NEWPORT        NOT AVBL
PINEY ISLAND   MOCLDY    84  80  88 SW13      29.81S
WILMINGTON     MOCLDY    83  78  85 SW12      29.82F


$$

NCZ011>013-027>030-043-044-078>080-089-090>093-098-280600-
COASTAL PLAIN

CITY           SKY/WX    TMP DP  RH WIND       PRES   REMARKS
AHOSKIE        PTCLDY    75  72  89 S5        29.75F
CLINTON        CLOUDY    83  75  77 SW3       29.79F
ELIZABETHTOWN  CLOUDY    84  72  68 SW10      29.81F
GOLDSBORO      CLOUDY    83  76  80 SW12      29.77R
GREENVILLE     MOCLDY    81  73  78 SW8       29.80S
HAVELOCK       MOCLDY    82  76  81 SW13      29.82R
KENANSVILLE    CLOUDY    83  71  68 SW5       29.80S
KINSTON        CLOUDY    81  74  78 SW6       29.79F
NEW BERN       CLOUDY    82  74  76 S7        29.81R
RICHLANDS      CLOUDY    81  73  78 SW12      29.79F
ROANOKE RAPIDS NOT AVBL
ROCKY MOUNT    CLOUDY    79  73  82 S5        29.76F
WASHINGTON     MOCLDY    79  74  84 S5        29.78F
WHITEVILLE     CLOUDY    84  73  68 SW8       29.83F

$$

AMZ130-135-150-152-154-156-158-170-250-252-270-ANZ085-086-088-633-658-670-280600-
MARINE OBSERVATIONS

STATION/POSITION TIME  TEMP    WIND        PRES    WAVE   SWELL
                       AIR SEA DIR/SP/G            HT/PER HT/PER
                 (UTC) (F)     (DEG/KT/KT) (MB)    (FT/S) (FT/S)
CHESAPEAKE LIGHT NOT AVBL
BUOY 44014       0500   79 78  210/ 12/ 14 1007.4    3/ 4   2/ 7
DUCK             0500   81 68  200/ 12/ 15 1006.9
2E DUCK          0500                        N/A     1/10
OREGON INLET     0500   82 83  200/ 15/ 17 1008.6
BUOY 44095       0500      79                N/A     3/ 5
20E OREGON INLET NOT AVBL
HATTERAS CG      0500   81 83  220/ 10/ 15 1010.0
DIAMOND BUOY     0500          VRB 19/ 21  1009.4    4/ 5   2/11
CAPE LOOKOUT     0500   82     220/ 14/ 19 1009.8
BEAUFORT LAB     0500   82 83  220/ 10/ 16 1009.6
30 SE NEW RIVER  0500   82 81  230/ 21/ 25 1010.3    5/ 5   2/10
5 SE WRIGHTSVILL 0500   80 82  230/ 21/ 25   N/A
BUOY 41002       0405   81 81  240/ 17/ 21 1015.1    5/ 6   2/ 9
BUOY 41004       0500   84 84  220/ 21/ 23 1011.7    4/ 5   2/10

$$



USA.gov is the U.S. government's official web portal to all federal, state and local government web resources and services.